Huvudsida
METAR-TAF:

METAR-TAF

Flygplatser :

Ventspils, Lettland

Ventspils lidosta

latitud: 57-21-28N, longitud: 021-32-39E, höjd: 6 m

Aktuellt väderrapport

Denna rapport gjordes för 7 minuter sedan, klockan 18:20 UTC
Vind 2 kt från nord
Temperatur 4°C
Fuktighet 87%
Tryck 1016 hPa
Sikt 10 km eller mer
Inga moln under 1 500 m eller inga cumulonimbus

METAR: EVVA 221820Z AUTO 36002KT CAVOK 04/02 Q1016

Tid: 21:27 (18:27 UTC)


TAF: saknas

Aktuella väderrapporter och prognoser från 4000 flygplatser (METAR- och TAF-rapporter).

De tillgängliga stationerna syns som gula och röda prickar på kartan.

För musen över prickarna för att se namnen på stationerna.

Klicka sedan för att få väderrapporter och prognoser.

För att ändra kartan: Klicka på de gröna knapparna med ett svart kors på för att zooma in; den gröna knappen med ett streck på för att zooma ut; eller på de gröna pilarna för angränsande kartor.


METAR-TAF: